Blythe, CA

2:39 PM PDT on June 25, 2017 (GMT -0700)
Blythe

Weather History for KBLH - February, 2014

Change the Weather History Date:

Thursday, February 6, 2014

  Actual Average Record
Temperature  
Mean Temperature 58 °F -  
Max Temperature 69 °F 67 °F 82 °F (2015)
Min Temperature 46 °F 43 °F 30 °F (1989)
Degree Days  
Heating Degree Days 8    
Growing Degree Days 8 (Base 50)    
Moisture  
Dew Point 35 °F    
Average Humidity 46    
Maximum Humidity 69    
Minimum Humidity 29    
Precipitation  
Precipitation 0.00 in - - ()
Sea Level Pressure  
Sea Level Pressure 29.94 in    
Wind  
Wind Speed 5 mph (SW)    
Max Wind Speed 18 mph    
Max Gust Speed -    
Visibility 10 miles    
Events      
Averages and records for this station are not official NWS values.
T = Trace of Precipitation, MM = Missing Value Source: NWS Daily Summary

Daily Weather History Graph

Daily Weather History Graph

Search for Another Location

Airport or City:

Trip Planner

Search our weather history database for the weather conditions in past years. The results will help you decide how hot, cold, wet, or windy it might be!

Date:

Astronomy

Feb. 06, 2014 Rise Set
Actual Time 6:31 AM PST 5:15 PM PST
Civil Twilight 6:05 AM PST 5:40 PM PST
Nautical Twilight 5:35 AM PST 6:10 PM PST
Astronomical Twilight 5:06 AM PST 6:39 PM PST
Moon 10:50 AM PST (2/6) No Moon Set
Length of Visible Light 11h 35m
Length of Day
10h 43m
Waxing Crescent, 50% of the Moon is Illuminated
Feb 6
Waxing Crescent
Feb 14
Full
Feb 22
Last Quarter
Mar 1
New
Mar 8
First Quarter

Hourly Weather History & Observations

Time (PST) Temp. Windchill Dew Point Humidity Pressure Visibility Wind Dir Wind Speed Gust Speed Precip Events Conditions
12:52 AM 50.0 °F - 28.9 °F 44% 30.00 in 10.0 mi Calm Calm - N/A   Clear
1:52 AM 48.0 °F - 26.1 °F 42% 29.99 in 10.0 mi NNW 3.5 mph - N/A   Clear
2:52 AM 48.0 °F - 27.0 °F 44% 29.99 in 10.0 mi Calm Calm - N/A   Clear
3:52 AM 46.0 °F 43.9 °F 27.0 °F 47% 29.96 in 10.0 mi ENE 4.6 mph - N/A   Clear
4:52 AM 46.9 °F - 30.0 °F 52% 29.98 in 10.0 mi North 4.6 mph - N/A   Clear
5:52 AM 48.0 °F - 28.9 °F 48% 29.99 in 10.0 mi Calm Calm - N/A   Scattered Clouds
6:52 AM 48.0 °F - 33.1 °F 56% 30.01 in 10.0 mi NW 3.5 mph - N/A   Mostly Cloudy
7:52 AM 50.0 °F - 30.9 °F 48% 30.01 in 10.0 mi WSW 3.5 mph - N/A   Mostly Cloudy
8:52 AM 53.1 °F - 32.0 °F 45% 30.01 in 10.0 mi ESE 4.6 mph - N/A   Overcast
9:52 AM 53.1 °F - 39.0 °F 59% 30.02 in 10.0 mi East 5.8 mph - N/A   Overcast
10:52 AM 57.9 °F - 35.1 °F 42% 29.99 in 10.0 mi Calm Calm - N/A   Overcast
11:52 AM 62.1 °F - 37.0 °F 39% 29.96 in 10.0 mi SSW 10.4 mph - N/A   Scattered Clouds
12:52 PM 64.9 °F - 37.9 °F 37% 29.92 in 10.0 mi Variable 5.8 mph - N/A   Overcast
1:52 PM 69.1 °F - 35.1 °F 29% 29.89 in 10.0 mi SSW 18.4 mph - N/A   Scattered Clouds
2:52 PM 69.1 °F - 35.1 °F 29% 29.87 in 10.0 mi SW 13.8 mph - N/A   Partly Cloudy
3:52 PM 68.0 °F - 37.0 °F 32% 29.87 in 10.0 mi WSW 13.8 mph - N/A   Overcast
4:52 PM 66.0 °F - 37.9 °F 36% 29.87 in 10.0 mi SW 16.1 mph - N/A   Overcast
5:52 PM 64.0 °F - 39.0 °F 40% 29.88 in 10.0 mi SW 10.4 mph - N/A   Scattered Clouds
6:52 PM 62.1 °F - 41.0 °F 46% 29.88 in 10.0 mi SW 10.4 mph - N/A   Clear
7:52 PM 60.1 °F - 43.0 °F 53% 29.89 in 10.0 mi WSW 15.0 mph - N/A   Clear
8:52 PM 59.0 °F - 43.0 °F 55% 29.90 in 10.0 mi South 5.8 mph - N/A   Mostly Cloudy
9:52 PM 60.1 °F - 42.1 °F 51% 29.91 in 10.0 mi WSW 8.1 mph - N/A   Overcast
10:52 PM 57.0 °F - 42.1 °F 57% 29.92 in 10.0 mi WSW 9.2 mph - N/A   Mostly Cloudy
11:52 PM 53.1 °F - 43.0 °F 69% 29.92 in 10.0 mi ESE 5.8 mph - N/A   Clear